Regional Weather Roundup
Issued by NWS

Home | Current Version | Previous Version | Text Only | Print | Product List | Glossary Off
Versions: 1 2 3 4 5 6 7 8 9 10 11 12 13 14 15 16 17 18 19 20 21 22 23 24 25 26 27 28 29 30 31 32 33 34 35 36 37 38 39 40 41 42 43 44 45 46 47 48 49 50

000
ASUS45 KPSR 090310
RWRAZ

ARIZONA HOURLY REGIONAL WEATHER ROUNDUP
NATIONAL WEATHER SERVICE PHOENIX AZ
800 PM MST THU DEC 08 2016

NOTE: FAIR INDICATES FEW OR NO CLOUDS BELOW 12,000 FEET WITH NO
SIGNIFICANT WEATHER AND/OR OBSTRUCTIONS TO VISIBILITY.

AZZ001>003-036-090400-
NORTHWEST ARIZONA

CITY           SKY/WX    TMP DP  RH WIND       PRES   REMARKS
BULLHEAD CITY    N/A     54  12  19 CALM      30.24S
KINGMAN        PTCLDY    40  19  43 S6        30.25R
$$

AZZ004>008-015-016-018-090400-
NORTH CENTRAL ARIZONA

CITY           SKY/WX    TMP DP  RH WIND       PRES   REMARKS
GRAND CANYON   CLOUDY    31  24  75 NE3       30.29R
WILLIAMS       CLEAR     34  27  75 SE6       30.28R WCI  29
PRESCOTT       CLEAR     41  29  62 S6        30.27R
FLAGSTAFF      CLEAR     28  22  78 W3        30.29R
PAYSON         CLEAR     43  32  65 NE3       30.30S
PAGE           PTCLDY    34   6  31 SE3       30.26S
$$

AZZ009>014-017-090400-
NORTHEAST ARIZONA

CITY           SKY/WX    TMP DP  RH WIND       PRES   REMARKS
WINSLOW        CLEAR     31  15  52 CALM      30.27S
SAINT JOHNS    CLEAR     33  23  66 CALM      30.27R HAZE
WINDOW ROCK    CLEAR     27  16  63 S3        30.29S
SHOW LOW       CLEAR     36  27  69 S8        30.30R WCI  29
$$

AZZ023-090400-
GREATER PHOENIX AREA

CITY           SKY/WX    TMP DP  RH WIND       PRES   REMARKS
PHOENIX        CLEAR     60  42  51 W5        30.18R
BUCKEYE          N/A     54  39  58 N7        30.22R
GLENDALE       PTCLDY    59  41  51 CALM      30.21R
LUKE AFB       CLEAR     55  42  62 CALM      30.19R
DEER VALLEY    CLEAR     57  41  55 N3        30.19R
SCOTTSDALE     CLEAR     58  41  53 CALM      30.21R
MESA-FALCON    CLEAR    N/A N/A N/A NW5       30.17R
MESA-GATEWAY   CLEAR     55  39  54 CALM      30.20R
CHANDLER       CLEAR     57  41  54 W6        30.19R
$$

AZZ027-028-090400-
SOUTHWEST MARICOPA COUNTY AND PINAL COUNTY

CITY           SKY/WX    TMP DP  RH WIND       PRES   REMARKS
CASA GRANDE    NOT AVBL
GILA BEND      CLEAR     54  31  42 SW5       30.19R
$$

AZZ503-504-507>509-090400-
SOUTHEAST ARIZONA

CITY           SKY/WX    TMP DP  RH WIND       PRES   REMARKS
TUCSON         CLEAR     56  35  45 W3        30.23R
DAVIS-MONTHAN  CLEAR     53  38  55 W3        30.22R
RYAN FIELD     CLEAR     52  37  58 W7        30.23R
NOGALES        CLEAR     50  25  37 N3        30.22R
SIERRA VISTA   CLEAR     51  31  47 W1        30.27R
DOUGLAS        CLEAR     52  35  52 VRB6      30.25R
SAFFORD        CLEAR     52  33  48 E7        30.27R
$$

AZZ020-021-025-026-031-090400-
SOUTHWEST ARIZONA

CITY           SKY/WX    TMP DP  RH WIND       PRES   REMARKS
YUMA           CLEAR     60  16  18 N7        30.20R
$$

CAZ031-033-041-043-047-048-061-090400-
SOUTHERN CALIFORNIA

CITY           SKY/WX    TMP DP  RH WIND       PRES   REMARKS
DOWNTOWN L.A.  CLEAR     57  53  86 CALM      30.22R
L.A. AIRPORT   PTCLDY    60  55  83 W15       30.23R
SAN DIEGO      PTCLDY    60  52  74 N5        30.25R
BURBANK        CLEAR     59  41  51 CALM      30.23R
ONTARIO        PTCLDY    56  43  61 W6        30.22S
RIVERSIDE      CLEAR     57  45  64 CALM      30.22S
PALM SPRINGS   CLEAR     59  28  30 CALM      30.23R
EL CENTRO NAS  PTCLDY    55  28  35 CALM      30.22R
IMPERIAL       CLEAR     57  30  35 CALM      30.20R
BLYTHE         PTCLDY    56  18  22 E5        30.21S
NEEDLES        PTCLDY    53   9  17 NW7       30.24R
$$

NVZ020-UTZ003-090400-
SOUTHERN NEVADA-UTAH

CITY           SKY/WX    TMP DP  RH WIND       PRES   REMARKS
LAS VEGAS      MOCLDY    51   8  17 CALM      30.25R
SALT LAKE CITY CLOUDY    27  23  85 NW8       30.16R WCI  19
$$

NMZ009-TXZ055-090400-
NEW MEXICO-WEST TEXAS

CITY           SKY/WX    TMP DP  RH WIND       PRES   REMARKS
ALBUQUERQUE    CLOUDY    30  15  53 E7        30.35S WCI  23
EL PASO        CLEAR     32  23  69 E7        30.42R WCI  26
$$


........................KEY........................
SKY/WX - SKY CONDITION/WEATHER
TMP    - TEMPERATURE IN FAHRENHEIT
DP     - DEW POINT IN FAHRENHEIT
RH     - RELATIVE HUMIDITY IN PERCENT
WIND   - DIRECTION AND SPEED IN MILES PER HOUR (MPH)
VRB    - VARIABLE WIND DIRECTION
PRES   - MEAN SEA LEVEL PRESSURE IN INCHES OF MERCURY
         F - FALLING PRESSURE   R - RISING PRESSURE
         S - STEADY PRESSURE
VSB    - VISIBILITY IN MILES
HX     - HEAT INDEX IN FAHRENHEIT
WCI    - WIND CHILL INDEX IN FAHRENHEIT
TC     - TEMPERATURE IN CELSIUS WHICH IS ALSO KNOWN AS
         TEMPERATURE IN CENTIGRADE
AFB    - AIR FORCE BASE
         LUKE AFB IS LUKE AIR FORCE BASE
         DAVIS-MONTHAN IS DAVIS-MONTHAN AIR FORCE BASE
NAS    - NAVAL AIR STATION
         EL CENTRO NAS IS EL CENTRO NAVAL AIR STATION
N/A    - NOT AVAILABLE




USA.gov is the U.S. government's official web portal to all federal, state and local government web resources and services.